星链-31559 (STARLINK-31559 )

导读

STARLINK-31559是美国SpaceX星链互联网卫星星座的成员,于2024年3月31日发射。作为星链组网卫星,它将通过低轨轨道运行,为全球提供高速宽带互联网服务,填补偏远地区网络覆盖空白,助力卫星互联网规模落地,拓展全球互联的覆盖边界。

基本信息
目录编号:
59358
目录名称:
STARLINK-31559
国际标识:
2024-060L
轨道中心:
EARTH
卫星名称:
星链-31559
卫星全名:
星链-31559 (STARLINK-31559 )
卫星状态:
在轨 (已飞行887 天)
发射日期:
2024-03-31 UTC
国别 :
美国 (US)
星等 :
--
轨道信息
数据来源 国际轨道数据 AOE轨道数据
星历时间 2026-09-03T22:26:00+0800
17小时前
查看轨道信息
2026-08-29T08:00:00+0800
6天前
查看轨道信息
半长轴 6861.183km 6861.15km
偏心率 0.0001022 0.0001486
轨道倾角 43.001° 43.002°
近地点辐角 267.843° 212.276°
升交点赤经 334.976° 6.609°
平近点角 92.230° 268.089°
近地点 482.344km 481.993km
远地点 483.748km 484.033km
周期 94.267分钟 94.266分钟
每日圈数 15.275813 15.275923
详细信息
固有亮度:
5
最大亮度:
0.3
卫星平台:
Starlink v2.0 mini
覆盖范围:
全球
运营商:
太空探索技术公司
运营商所在国:
美国
制造商(研发单位):
太空探索技术公司
制造商所在国:
美国
使用方式:
暂无
卫星简介
星链(Starlink)计划是由太空探索技术公司(SpaceX)提出的一个巨型低轨卫星互联网星座项目,计划在2019年至2024年间在太空搭建由约1.2万颗卫星组成的“星链”网络,其中1584颗将部署在地球上空550千米处的近地轨道,并从2020年开始工作。该卫星仍在工作。
2D轨道图
3D轨道图
轨道高度分析图
轨道倾角分析图
轨道综合分析图
查看轨道综合分析图